Time,TemperatureF,DewpointF,PressureIn,WindDirection,WindDirectionDegrees,WindSpeedMPH,WindSpeedGustMPH,Humidity,HourlyPrecipIn,Conditions,Clouds,dailyrainin,SoftwareType,DateUTC
2013-02-02 00:00:00,20.5,16.2,30.19,SW,229,0.0,4.0,83,0.00,,,0.00,Wunderground v.1.15,2013-02-02 06:00:00,
2013-02-02 00:01:00,20.5,16.4,30.19,SSE,165,1.0,2.0,84,0.00,,,0.00,Wunderground v.1.15,2013-02-02 06:01:00,
2013-02-02 00:03:00,20.5,16.4,30.19,SSW,210,1.0,2.0,84,0.00,,,0.00,Wunderground v.1.15,2013-02-02 06:03:00,
2013-02-02 00:08:00,20.5,16.4,30.19,SW,217,2.0,6.0,84,0.00,,,0.00,Wunderground v.1.15,2013-02-02 06:08:00,
2013-02-02 00:13:00,20.5,16.4,30.19,South,181,2.0,2.0,84,0.00,,,0.00,Wunderground v.1.15,2013-02-02 06:13:00,
2013-02-02 00:15:00,20.5,16.4,30.18,SSW,208,2.0,2.0,84,0.00,,,0.00,Wunderground v.1.15,2013-02-02 06:15:00,
2013-02-02 00:18:00,20.5,16.4,30.18,South,188,3.0,3.0,84,0.00,,,0.00,Wunderground v.1.15,2013-02-02 06:18:00,
2013-02-02 00:21:00,20.5,16.4,30.18,SW,233,3.0,3.0,84,0.00,,,0.00,Wunderground v.1.15,2013-02-02 06:21:00,
2013-02-02 00:23:00,20.5,16.4,30.18,SSW,195,3.0,3.0,84,0.00,,,0.00,Wunderground v.1.15,2013-02-02 06:23:00,
2013-02-02 00:28:00,20.5,16.7,30.18,South,186,2.0,3.0,85,0.00,,,0.00,Wunderground v.1.15,2013-02-02 06:28:00,
2013-02-02 00:30:00,20.5,16.7,30.17,South,169,1.0,3.0,85,0.00,,,0.00,Wunderground v.1.15,2013-02-02 06:30:00,
2013-02-02 00:33:00,20.7,16.9,30.17,South,189,1.0,3.0,85,0.00,,,0.00,Wunderground v.1.15,2013-02-02 06:33:00,
2013-02-02 00:38:00,20.7,16.9,30.17,South,181,2.0,6.0,85,0.00,,,0.00,Wunderground v.1.15,2013-02-02 06:38:00,
2013-02-02 00:40:00,20.7,16.9,30.17,South,186,2.0,6.0,85,0.00,,,0.00,Wunderground v.1.15,2013-02-02 06:40:00,
2013-02-02 00:41:00,20.7,16.9,30.17,SSE,168,2.0,3.0,85,0.00,,,0.00,Wunderground v.1.15,2013-02-02 06:41:00,
2013-02-02 00:43:00,20.8,17.0,30.17,SSE,167,2.0,7.0,85,0.00,,,0.00,Wunderground v.1.15,2013-02-02 06:43:00,
2013-02-02 00:48:00,20.8,17.0,30.15,SSW,192,3.0,7.0,85,0.00,,,0.00,Wunderground v.1.15,2013-02-02 06:48:00,
2013-02-02 00:50:00,20.8,17.0,30.15,South,182,3.0,7.0,85,0.00,,,0.00,Wunderground v.1.15,2013-02-02 06:50:00,
2013-02-02 00:51:00,20.8,17.3,30.15,South,171,4.0,4.0,86,0.00,,,0.00,Wunderground v.1.15,2013-02-02 06:51:00,
2013-02-02 00:58:00,20.8,17.3,30.15,SSE,164,2.0,6.0,86,0.00,,,0.00,Wunderground v.1.15,2013-02-02 06:58:00,
2013-02-02 01:00:00,20.8,17.3,30.15,South,172,2.0,6.0,86,0.00,,,0.00,Wunderground v.1.15,2013-02-02 07:00:00,
2013-02-02 01:03:00,20.7,17.2,30.15,South,191,3.0,8.0,86,0.00,,,0.00,Wunderground v.1.15,2013-02-02 07:03:00,
2013-02-02 01:06:00,20.8,17.3,30.15,SSE,167,3.0,8.0,86,0.00,,,0.00,Wunderground v.1.15,2013-02-02 07:06:00,
2013-02-02 01:08:00,20.8,17.5,30.15,SSW,196,4.0,8.0,87,0.00,,,0.00,Wunderground v.1.15,2013-02-02 07:08:00,
2013-02-02 01:11:00,20.8,17.5,30.15,South,178,4.0,4.0,87,0.00,,,0.00,Wunderground v.1.15,2013-02-02 07:11:00,
2013-02-02 01:13:00,20.8,17.5,30.15,SSW,198,4.0,4.0,87,0.00,,,0.00,Wunderground v.1.15,2013-02-02 07:13:00,
2013-02-02 01:15:00,21.0,17.7,30.13,SSW,196,4.0,4.0,87,0.00,,,0.00,Wunderground v.1.15,2013-02-02 07:15:00,
2013-02-02 01:18:00,21.0,17.7,30.13,South,189,3.0,10.0,87,0.00,,,0.00,Wunderground v.1.15,2013-02-02 07:18:00,
2013-02-02 01:21:00,21.2,17.7,30.13,South,189,3.0,5.0,86,0.00,,,0.00,Wunderground v.1.15,2013-02-02 07:21:00,
2013-02-02 01:23:00,21.2,17.7,30.13,SSW,200,3.0,5.0,86,0.00,,,0.00,Wunderground v.1.15,2013-02-02 07:23:00,
2013-02-02 01:28:00,21.3,17.8,30.13,South,185,3.0,8.0,86,0.00,,,0.00,Wunderground v.1.15,2013-02-02 07:28:00,
2013-02-02 01:30:00,21.5,18.0,30.12,SSW,195,3.0,8.0,86,0.00,,,0.00,Wunderground v.1.15,2013-02-02 07:30:00,
2013-02-02 01:31:00,21.5,17.7,30.12,South,172,3.0,7.0,85,0.00,,,0.00,Wunderground v.1.15,2013-02-02 07:31:00,
2013-02-02 01:38:00,21.8,17.4,30.12,South,184,2.0,7.0,83,0.00,,,0.00,Wunderground v.1.15,2013-02-02 07:38:00,
2013-02-02 01:40:00,21.9,17.5,30.12,SSW,200,2.0,7.0,83,0.00,,,0.00,Wunderground v.1.15,2013-02-02 07:40:00,
2013-02-02 01:43:00,21.9,17.2,30.12,SSW,196,2.0,2.0,82,0.00,,,0.00,Wunderground v.1.15,2013-02-02 07:43:00,
2013-02-02 01:48:00,21.9,17.2,30.11,South,184,2.0,3.0,82,0.00,,,0.00,Wunderground v.1.15,2013-02-02 07:48:00,
2013-02-02 01:51:00,22.1,17.2,30.11,SSW,208,2.0,2.0,81,0.00,,,0.00,Wunderground v.1.15,2013-02-02 07:51:00,
2013-02-02 01:53:00,22.1,17.2,30.11,South,189,2.0,2.0,81,0.00,,,0.00,Wunderground v.1.15,2013-02-02 07:53:00,
2013-02-02 01:58:00,22.3,17.4,30.11,South,176,2.0,2.0,81,0.00,,,0.00,Wunderground v.1.15,2013-02-02 07:58:00,
2013-02-02 02:01:00,22.4,17.2,30.11,SW,224,1.0,2.0,80,0.00,,,0.00,Wunderground v.1.15,2013-02-02 08:01:00,
2013-02-02 02:06:00,22.4,16.9,30.11,SSW,198,2.0,2.0,79,0.00,,,0.00,Wunderground v.1.15,2013-02-02 08:06:00,
2013-02-02 02:11:00,22.7,16.9,30.11,SSW,202,1.0,1.0,78,0.00,,,0.00,Wunderground v.1.15,2013-02-02 08:11:00,
2013-02-02 02:15:00,22.9,16.8,30.10,South,172,1.0,1.0,77,0.00,,,0.00,Wunderground v.1.15,2013-02-02 08:15:00,
2013-02-02 02:18:00,23.0,16.6,30.10,SSW,212,2.0,2.0,76,0.00,,,0.00,Wunderground v.1.15,2013-02-02 08:18:00,
2013-02-02 02:21:00,23.0,16.6,30.10,South,178,2.0,2.0,76,0.00,,,0.00,Wunderground v.1.15,2013-02-02 08:21:00,
2013-02-02 02:23:00,23.2,16.4,30.10,South,181,2.0,2.0,75,0.00,,,0.00,Wunderground v.1.15,2013-02-02 08:23:00,
2013-02-02 02:30:00,23.2,16.4,30.10,South,172,1.0,3.0,75,0.00,,,0.00,Wunderground v.1.15,2013-02-02 08:30:00,
2013-02-02 02:31:00,23.2,16.4,30.10,SSW,195,1.0,1.0,75,0.00,,,0.00,Wunderground v.1.15,2013-02-02 08:31:00,
2013-02-02 02:35:00,23.2,16.8,30.10,SSE,161,1.0,3.0,76,0.00,,,0.00,Wunderground v.1.15,2013-02-02 08:35:00,
2013-02-02 02:38:00,23.2,16.4,30.10,SSW,212,1.0,10.0,75,0.00,,,0.00,Wunderground v.1.15,2013-02-02 08:38:00,
2013-02-02 02:41:00,23.2,16.8,30.10,SSW,192,2.0,2.0,76,0.00,,,0.00,Wunderground v.1.15,2013-02-02 08:41:00,
2013-02-02 02:45:00,23.2,16.8,30.10,South,174,1.0,3.0,76,0.00,,,0.00,Wunderground v.1.15,2013-02-02 08:45:00,
2013-02-02 02:48:00,23.2,16.8,30.10,SSW,192,1.0,3.0,76,0.00,,,0.00,Wunderground v.1.15,2013-02-02 08:48:00,
2013-02-02 02:51:00,23.2,16.8,30.10,South,189,2.0,2.0,76,0.00,,,0.00,Wunderground v.1.15,2013-02-02 08:51:00,
2013-02-02 02:58:00,23.2,16.8,30.10,SSW,202,1.0,2.0,76,0.00,,,0.00,Wunderground v.1.15,2013-02-02 08:58:00,
2013-02-02 03:00:00,23.2,16.8,30.10,South,191,0.0,0.0,76,0.00,,,0.00,Wunderground v.1.15,2013-02-02 09:00:00,
2013-02-02 03:03:00,23.2,16.8,30.10,South,184,0.0,0.0,76,0.00,,,0.00,Wunderground v.1.15,2013-02-02 09:03:00,
2013-02-02 03:11:00,23.3,16.9,30.10,SSW,196,0.0,0.0,76,0.00,,,0.00,Wunderground v.1.15,2013-02-02 09:11:00,
2013-02-02 03:13:00,23.3,16.9,30.10,SSW,192,1.0,1.0,76,0.00,,,0.00,Wunderground v.1.15,2013-02-02 09:13:00,
2013-02-02 03:18:00,23.3,16.9,30.09,SW,215,0.0,1.0,76,0.00,,,0.00,Wunderground v.1.15,2013-02-02 09:18:00,
2013-02-02 03:20:00,23.3,16.9,30.09,South,175,1.0,1.0,76,0.00,,,0.00,Wunderground v.1.15,2013-02-02 09:20:00,
2013-02-02 03:21:00,23.3,16.9,30.09,SSW,200,1.0,1.0,76,0.00,,,0.00,Wunderground v.1.15,2013-02-02 09:21:00,
2013-02-02 03:23:00,23.5,17.0,30.09,SSW,195,1.0,1.0,76,0.00,,,0.00,Wunderground v.1.15,2013-02-02 09:23:00,
2013-02-02 03:28:00,23.5,16.7,30.09,South,191,1.0,1.0,75,0.00,,,0.00,Wunderground v.1.15,2013-02-02 09:28:00,
2013-02-02 03:31:00,23.6,16.8,30.08,SSW,205,0.0,1.0,75,0.00,,,0.00,Wunderground v.1.15,2013-02-02 09:31:00,
2013-02-02 03:35:00,23.8,16.7,30.08,SSW,198,1.0,2.0,74,0.00,,,0.00,Wunderground v.1.15,2013-02-02 09:35:00,
2013-02-02 03:38:00,23.8,16.4,30.08,SSW,208,1.0,2.0,73,0.00,,,0.00,Wunderground v.1.15,2013-02-02 09:38:00,
2013-02-02 03:40:00,23.9,16.5,30.08,SSW,206,1.0,3.0,73,0.00,,,0.00,Wunderground v.1.15,2013-02-02 09:40:00,
2013-02-02 03:41:00,23.9,16.5,30.08,SW,216,1.0,1.0,73,0.00,,,0.00,Wunderground v.1.15,2013-02-02 09:41:00,
2013-02-02 03:45:00,24.1,16.4,30.08,South,175,1.0,1.0,72,0.00,,,0.00,Wunderground v.1.15,2013-02-02 09:45:00,
2013-02-02 03:48:00,24.1,16.4,30.08,SSW,206,2.0,7.0,72,0.00,,,0.00,Wunderground v.1.15,2013-02-02 09:48:00,
2013-02-02 03:51:00,24.2,16.1,30.08,SW,223,2.0,2.0,71,0.00,,,0.00,Wunderground v.1.15,2013-02-02 09:51:00,
2013-02-02 03:53:00,24.2,16.1,30.08,South,191,3.0,3.0,71,0.00,,,0.00,Wunderground v.1.15,2013-02-02 09:53:00,
2013-02-02 04:00:00,24.5,16.4,30.06,SW,227,2.0,8.0,71,0.00,,,0.00,Wunderground v.1.15,2013-02-02 10:00:00,
2013-02-02 04:01:00,24.5,16.4,30.06,SSW,200,2.0,2.0,71,0.00,,,0.00,Wunderground v.1.15,2013-02-02 10:01:00,
2013-02-02 04:03:00,24.5,16.4,30.06,SW,223,2.0,2.0,71,0.00,,,0.00,Wunderground v.1.15,2013-02-02 10:03:00,
2013-02-02 04:08:00,24.5,16.4,30.06,SSW,200,2.0,2.0,71,0.00,,,0.00,Wunderground v.1.15,2013-02-02 10:08:00,
2013-02-02 04:11:00,24.5,16.4,30.06,SW,229,1.0,1.0,71,0.00,,,0.00,Wunderground v.1.15,2013-02-02 10:11:00,
2013-02-02 04:13:00,24.5,16.4,30.06,SW,219,1.0,1.0,71,0.00,,,0.00,Wunderground v.1.15,2013-02-02 10:13:00,
2013-02-02 04:18:00,24.5,16.4,30.06,SW,223,1.0,1.0,71,0.00,,,0.00,Wunderground v.1.15,2013-02-02 10:18:00,
2013-02-02 04:20:00,24.5,16.4,30.06,WSW,256,1.0,4.0,71,0.00,,,0.00,Wunderground v.1.15,2013-02-02 10:20:00,
2013-02-02 04:25:00,24.5,16.8,30.06,SSW,206,1.0,3.0,72,0.00,,,0.00,Wunderground v.1.15,2013-02-02 10:25:00,
2013-02-02 04:28:00,24.5,16.8,30.06,SW,217,1.0,3.0,72,0.00,,,0.00,Wunderground v.1.15,2013-02-02 10:28:00,
2013-02-02 04:33:00,24.7,17.0,30.06,SW,219,2.0,2.0,72,0.00,,,0.00,Wunderground v.1.15,2013-02-02 10:33:00,
2013-02-02 04:35:00,24.7,17.0,30.06,SW,236,1.0,4.0,72,0.00,,,0.00,Wunderground v.1.15,2013-02-02 10:35:00,
2013-02-02 04:41:00,24.7,17.0,30.06,SSW,193,1.0,2.0,72,0.00,,,0.00,Wunderground v.1.15,2013-02-02 10:41:00,
2013-02-02 04:43:00,24.7,17.0,30.06,SW,220,2.0,2.0,72,0.00,,,0.00,Wunderground v.1.15,2013-02-02 10:43:00,
2013-02-02 04:48:00,24.4,17.3,30.06,SSW,210,2.0,2.0,74,0.00,,,0.00,Wunderground v.1.15,2013-02-02 10:48:00,
2013-02-02 04:51:00,24.2,17.4,30.06,SW,215,2.0,6.0,75,0.00,,,0.00,Wunderground v.1.15,2013-02-02 10:51:00,
2013-02-02 04:53:00,24.2,17.4,30.06,SW,220,2.0,7.0,75,0.00,,,0.00,Wunderground v.1.15,2013-02-02 10:53:00,
2013-02-02 04:55:00,24.1,18.2,30.06,SW,219,3.0,7.0,78,0.00,,,0.00,Wunderground v.1.15,2013-02-02 10:55:00,
2013-02-02 04:58:00,23.9,18.3,30.06,South,188,2.0,7.0,79,0.00,,,0.00,Wunderground v.1.15,2013-02-02 10:58:00,
2013-02-02 05:00:00,23.8,18.5,30.06,West,264,3.0,7.0,80,0.00,,,0.00,Wunderground v.1.15,2013-02-02 11:00:00,
2013-02-02 05:01:00,23.8,18.5,30.06,WSW,244,2.0,2.0,80,0.00,,,0.00,Wunderground v.1.15,2013-02-02 11:01:00,
2013-02-02 05:05:00,23.6,18.9,30.06,SSW,199,2.0,5.0,82,0.00,,,0.00,Wunderground v.1.15,2013-02-02 11:05:00,
2013-02-02 05:08:00,23.5,18.8,30.06,SSW,206,2.0,5.0,82,0.00,,,0.00,Wunderground v.1.15,2013-02-02 11:08:00,
2013-02-02 05:11:00,23.5,19.1,30.06,SW,234,1.0,1.0,83,0.00,,,0.00,Wunderground v.1.15,2013-02-02 11:11:00,
2013-02-02 05:15:00,23.5,19.4,30.05,SW,227,1.0,1.0,84,0.00,,,0.00,Wunderground v.1.15,2013-02-02 11:15:00,
2013-02-02 05:18:00,23.5,19.4,30.05,SW,217,1.0,1.0,84,0.00,,,0.00,Wunderground v.1.15,2013-02-02 11:18:00,
2013-02-02 05:20:00,23.5,19.4,30.05,SSW,198,1.0,7.0,84,0.00,,,0.00,Wunderground v.1.15,2013-02-02 11:20:00,
2013-02-02 05:21:00,23.5,19.7,30.05,SW,216,1.0,1.0,85,0.00,,,0.00,Wunderground v.1.15,2013-02-02 11:21:00,
2013-02-02 05:23:00,23.5,19.7,30.05,SW,223,1.0,1.0,85,0.00,,,0.00,Wunderground v.1.15,2013-02-02 11:23:00,
2013-02-02 05:25:00,23.3,19.5,30.05,SSW,213,1.0,3.0,85,0.00,,,0.00,Wunderground v.1.15,2013-02-02 11:25:00,
2013-02-02 05:28:00,23.5,19.7,30.05,SSW,208,1.0,5.0,85,0.00,,,0.00,Wunderground v.1.15,2013-02-02 11:28:00,
2013-02-02 05:30:00,23.5,19.7,30.05,South,189,2.0,6.0,85,0.00,,,0.00,Wunderground v.1.15,2013-02-02 11:30:00,
2013-02-02 05:31:00,23.5,19.9,30.05,South,185,2.0,4.0,86,0.00,,,0.00,Wunderground v.1.15,2013-02-02 11:31:00,
2013-02-02 05:38:00,23.5,19.9,30.05,SSW,203,2.0,4.0,86,0.00,,,0.00,Wunderground v.1.15,2013-02-02 11:38:00,
2013-02-02 05:40:00,23.5,19.9,30.05,SW,223,1.0,4.0,86,0.00,,,0.00,Wunderground v.1.15,2013-02-02 11:40:00,
2013-02-02 05:45:00,23.5,19.9,30.05,SW,234,0.0,1.0,86,0.00,,,0.00,Wunderground v.1.15,2013-02-02 11:45:00,
2013-02-02 05:48:00,23.5,19.9,30.05,SW,216,1.0,1.0,86,0.00,,,0.00,Wunderground v.1.15,2013-02-02 11:48:00,
2013-02-02 05:53:00,23.5,20.2,30.05,SSW,206,2.0,2.0,87,0.00,,,0.00,Wunderground v.1.15,2013-02-02 11:53:00,
2013-02-02 05:55:00,23.5,20.2,30.05,SW,220,1.0,2.0,87,0.00,,,0.00,Wunderground v.1.15,2013-02-02 11:55:00,
2013-02-02 05:58:00,23.5,20.2,30.05,SSW,206,1.0,2.0,87,0.00,,,0.00,Wunderground v.1.15,2013-02-02 11:58:00,
2013-02-02 06:03:00,23.5,20.2,30.05,SW,219,0.0,3.0,87,0.00,,,0.00,Wunderground v.1.15,2013-02-02 12:03:00,
2013-02-02 06:08:00,23.6,20.6,30.05,SSW,209,1.0,3.0,88,0.00,,,0.00,Wunderground v.1.15,2013-02-02 12:08:00,
2013-02-02 06:10:00,23.6,20.6,30.05,WSW,251,1.0,3.0,88,0.00,,,0.00,Wunderground v.1.15,2013-02-02 12:10:00,
2013-02-02 06:11:00,23.6,20.6,30.05,West,261,1.0,1.0,88,0.00,,,0.00,Wunderground v.1.15,2013-02-02 12:11:00,
2013-02-02 06:15:00,23.6,20.6,30.06,SW,219,1.0,1.0,88,0.00,,,0.00,Wunderground v.1.15,2013-02-02 12:15:00,
2013-02-02 06:18:00,23.6,20.6,30.06,SW,219,2.0,2.0,88,0.00,,,0.00,Wunderground v.1.15,2013-02-02 12:18:00,
2013-02-02 06:20:00,23.6,20.6,30.06,WSW,251,1.0,2.0,88,0.00,,,0.00,Wunderground v.1.15,2013-02-02 12:20:00,
2013-02-02 06:23:00,23.6,20.6,30.06,SW,226,1.0,2.0,88,0.00,,,0.00,Wunderground v.1.15,2013-02-02 12:23:00,
2013-02-02 06:25:00,23.6,20.6,30.06,SW,227,1.0,2.0,88,0.00,,,0.00,Wunderground v.1.15,2013-02-02 12:25:00,
2013-02-02 06:28:00,23.8,20.8,30.06,SW,226,1.0,2.0,88,0.00,,,0.00,Wunderground v.1.15,2013-02-02 12:28:00,
2013-02-02 06:30:00,23.8,20.8,30.05,SW,227,1.0,2.0,88,0.00,,,0.00,Wunderground v.1.15,2013-02-02 12:30:00,
2013-02-02 06:33:00,23.8,20.8,30.05,West,267,1.0,2.0,88,0.00,,,0.00,Wunderground v.1.15,2013-02-02 12:33:00,
2013-02-02 06:35:00,23.8,20.8,30.05,SSW,212,1.0,2.0,88,0.00,,,0.00,Wunderground v.1.15,2013-02-02 12:35:00,
2013-02-02 06:38:00,23.8,20.8,30.05,SW,230,1.0,2.0,88,0.00,,,0.00,Wunderground v.1.15,2013-02-02 12:38:00,
2013-02-02 06:43:00,23.9,20.9,30.05,SW,219,1.0,1.0,88,0.00,,,0.00,Wunderground v.1.15,2013-02-02 12:43:00,
2013-02-02 06:51:00,24.1,21.3,30.05,WSW,247,1.0,1.0,89,0.00,,,0.00,Wunderground v.1.15,2013-02-02 12:51:00,
2013-02-02 06:53:00,24.1,21.3,30.05,WSW,247,1.0,5.0,89,0.00,,,0.00,Wunderground v.1.15,2013-02-02 12:53:00,
2013-02-02 06:55:00,24.1,21.3,30.05,West,261,2.0,5.0,89,0.00,,,0.00,Wunderground v.1.15,2013-02-02 12:55:00,
2013-02-02 07:00:00,24.2,21.4,30.05,SW,219,2.0,5.0,89,0.00,,,0.00,Wunderground v.1.15,2013-02-02 13:00:00,
2013-02-02 07:06:00,24.2,21.2,30.05,WSW,254,1.0,2.0,88,0.00,,,0.00,Wunderground v.1.15,2013-02-02 13:06:00,
2013-02-02 07:08:00,24.2,21.2,30.05,SW,220,1.0,2.0,88,0.00,,,0.00,Wunderground v.1.15,2013-02-02 13:08:00,
2013-02-02 07:11:00,24.4,21.4,30.05,SW,222,1.0,1.0,88,0.00,,,0.00,Wunderground v.1.15,2013-02-02 13:11:00,
2013-02-02 07:18:00,24.4,21.4,30.05,West,274,1.0,6.0,88,0.00,,,0.00,Wunderground v.1.15,2013-02-02 13:18:00,
2013-02-02 07:21:00,24.4,21.4,30.05,SW,215,2.0,2.0,88,0.00,,,0.00,Wunderground v.1.15,2013-02-02 13:21:00,
2013-02-02 07:25:00,24.4,21.4,30.05,SW,224,2.0,2.0,88,0.00,,,0.00,Wunderground v.1.15,2013-02-02 13:25:00,
2013-02-02 07:28:00,24.4,21.4,30.05,SW,230,2.0,2.0,88,0.00,,,0.00,Wunderground v.1.15,2013-02-02 13:28:00,
2013-02-02 07:30:00,24.4,21.4,30.05,WSW,256,1.0,2.0,88,0.00,,,0.00,Wunderground v.1.15,2013-02-02 13:30:00,
2013-02-02 07:31:00,24.4,21.4,30.05,West,274,1.0,1.0,88,0.00,,,0.00,Wunderground v.1.15,2013-02-02 13:31:00,
2013-02-02 07:33:00,24.5,21.5,30.05,West,271,1.0,1.0,88,0.00,,,0.00,Wunderground v.1.15,2013-02-02 13:33:00,
2013-02-02 07:38:00,24.5,21.7,30.05,West,263,1.0,3.0,89,0.00,,,0.00,Wunderground v.1.15,2013-02-02 13:38:00,
2013-02-02 07:41:00,24.5,21.7,30.05,West,263,1.0,1.0,89,0.00,,,0.00,Wunderground v.1.15,2013-02-02 13:41:00,
2013-02-02 07:43:00,24.5,21.7,30.05,West,274,1.0,1.0,89,0.00,,,0.00,Wunderground v.1.15,2013-02-02 13:43:00,
2013-02-02 07:48:00,24.5,21.7,30.05,WSW,250,2.0,2.0,89,0.00,,,0.00,Wunderground v.1.15,2013-02-02 13:48:00,
2013-02-02 07:51:00,24.7,21.7,30.05,WSW,241,1.0,1.0,88,0.00,,,0.00,Wunderground v.1.15,2013-02-02 13:51:00,
2013-02-02 07:53:00,24.7,21.7,30.05,West,278,1.0,1.0,88,0.00,,,0.00,Wunderground v.1.15,2013-02-02 13:53:00,
2013-02-02 07:58:00,24.7,21.7,30.05,NW,311,1.0,1.0,88,0.00,,,0.00,Wunderground v.1.15,2013-02-02 13:58:00,
2013-02-02 08:00:00,24.8,21.8,30.05,WSW,257,0.0,2.0,88,0.00,,,0.00,Wunderground v.1.15,2013-02-02 14:00:00,
2013-02-02 08:01:00,24.8,21.8,30.05,NW,305,0.0,0.0,88,0.00,,,0.00,Wunderground v.1.15,2013-02-02 14:01:00,
2013-02-02 08:06:00,25.0,21.9,30.05,West,271,1.0,1.0,88,0.00,,,0.00,Wunderground v.1.15,2013-02-02 14:06:00,
2013-02-02 08:10:00,25.0,21.9,30.05,West,272,1.0,1.0,88,0.00,,,0.00,Wunderground v.1.15,2013-02-02 14:10:00,
2013-02-02 08:11:00,25.0,21.9,30.05,West,275,1.0,1.0,88,0.00,,,0.00,Wunderground v.1.15,2013-02-02 14:11:00,
2013-02-02 08:15:00,25.1,21.8,30.05,West,281,1.0,1.0,87,0.00,,,0.00,Wunderground v.1.15,2013-02-02 14:15:00,
2013-02-02 08:20:00,25.1,21.8,30.05,WNW,302,1.0,1.0,87,0.00,,,0.00,Wunderground v.1.15,2013-02-02 14:20:00,
2013-02-02 08:28:00,25.4,21.8,30.05,NW,315,2.0,2.0,86,0.00,,,0.00,Wunderground v.1.15,2013-02-02 14:28:00,
2013-02-02 08:33:00,25.5,21.9,30.06,West,277,2.0,3.0,86,0.00,,,0.00,Wunderground v.1.15,2013-02-02 14:33:00,
2013-02-02 08:35:00,25.5,21.9,30.06,NW,308,1.0,3.0,86,0.00,,,0.00,Wunderground v.1.15,2013-02-02 14:35:00,
2013-02-02 08:40:00,25.7,21.8,30.06,NW,316,2.0,6.0,85,0.00,,,0.00,Wunderground v.1.15,2013-02-02 14:40:00,
2013-02-02 08:41:00,25.7,21.8,30.06,NW,319,3.0,5.0,85,0.00,,,0.00,Wunderground v.1.15,2013-02-02 14:41:00,
2013-02-02 08:45:00,25.7,21.5,30.06,NW,305,5.0,11.0,84,0.00,,,0.00,Wunderground v.1.15,2013-02-02 14:45:00,
2013-02-02 08:48:00,25.8,21.6,30.06,West,272,5.0,11.0,84,0.00,,,0.00,Wunderground v.1.15,2013-02-02 14:48:00,
2013-02-02 08:50:00,25.8,21.1,30.06,NNW,328,5.0,11.0,82,0.00,,,0.00,Wunderground v.1.15,2013-02-02 14:50:00,
2013-02-02 08:51:00,25.8,21.1,30.06,WNW,285,5.0,5.0,82,0.00,,,0.00,Wunderground v.1.15,2013-02-02 14:51:00,
2013-02-02 08:58:00,26.0,21.0,30.06,NW,304,4.0,5.0,81,0.00,,,0.00,Wunderground v.1.15,2013-02-02 14:58:00,
2013-02-02 09:00:00,26.0,20.7,30.06,NW,316,3.0,5.0,80,0.00,,,0.00,Wunderground v.1.15,2013-02-02 15:00:00,
2013-02-02 09:01:00,26.0,20.7,30.06,NW,319,3.0,8.0,80,0.00,,,0.00,Wunderground v.1.15,2013-02-02 15:01:00,
2013-02-02 09:08:00,25.8,20.2,30.06,NW,304,5.0,8.0,79,0.00,,,0.00,Wunderground v.1.15,2013-02-02 15:08:00,
2013-02-02 09:10:00,25.8,20.2,30.06,West,281,5.0,8.0,79,0.00,,,0.00,Wunderground v.1.15,2013-02-02 15:10:00,
2013-02-02 09:15:00,25.7,20.1,30.06,West,265,3.0,7.0,79,0.00,,,0.00,Wunderground v.1.15,2013-02-02 15:15:00,
2013-02-02 09:18:00,25.7,20.1,30.06,NW,308,3.0,7.0,79,0.00,,,0.00,Wunderground v.1.15,2013-02-02 15:18:00,
2013-02-02 09:20:00,25.7,20.1,30.06,NW,315,3.0,7.0,79,0.00,,,0.00,Wunderground v.1.15,2013-02-02 15:20:00,
2013-02-02 09:23:00,25.5,19.9,30.06,WNW,294,3.0,6.0,79,0.00,,,0.00,Wunderground v.1.15,2013-02-02 15:23:00,
2013-02-02 09:28:00,25.5,19.9,30.06,NW,320,3.0,6.0,79,0.00,,,0.00,Wunderground v.1.15,2013-02-02 15:28:00,
2013-02-02 09:30:00,25.5,19.9,30.07,NNW,329,3.0,6.0,79,0.00,,,0.00,Wunderground v.1.15,2013-02-02 15:30:00,
2013-02-02 09:33:00,25.5,19.9,30.07,NNW,328,2.0,3.0,79,0.00,,,0.00,Wunderground v.1.15,2013-02-02 15:33:00,
2013-02-02 09:35:00,25.5,19.9,30.07,WNW,288,2.0,3.0,79,0.00,,,0.00,Wunderground v.1.15,2013-02-02 15:35:00,
2013-02-02 09:38:00,25.5,19.9,30.07,NW,318,2.0,5.0,79,0.00,,,0.00,Wunderground v.1.15,2013-02-02 15:38:00,
2013-02-02 09:41:00,25.5,19.9,30.07,North,352,3.0,3.0,79,0.00,,,0.00,Wunderground v.1.15,2013-02-02 15:41:00,
2013-02-02 09:43:00,25.5,19.9,30.07,NW,315,2.0,4.0,79,0.00,,,0.00,Wunderground v.1.15,2013-02-02 15:43:00,
2013-02-02 09:50:00,25.4,19.5,30.07,WNW,302,4.0,8.0,78,0.00,,,0.00,Wunderground v.1.15,2013-02-02 15:50:00,
2013-02-02 09:53:00,25.2,19.0,30.07,NNW,335,4.0,5.0,77,0.00,,,0.00,Wunderground v.1.15,2013-02-02 15:53:00,
2013-02-02 09:55:00,25.0,19.1,30.07,North,359,4.0,5.0,78,0.00,,,0.00,Wunderground v.1.15,2013-02-02 15:55:00,
2013-02-02 10:00:00,24.7,18.8,30.08,NNW,344,2.0,5.0,78,0.00,,,0.00,Wunderground v.1.15,2013-02-02 16:00:00,
2013-02-02 10:01:00,24.7,18.8,30.08,North,0,2.0,2.0,78,0.00,,,0.00,Wunderground v.1.15,2013-02-02 16:01:00,
2013-02-02 10:03:00,24.5,18.6,30.08,NNW,346,2.0,2.0,78,0.00,,,0.00,Wunderground v.1.15,2013-02-02 16:03:00,
2013-02-02 10:11:00,24.2,18.0,30.08,North,353,2.0,2.0,77,0.00,,,0.00,Wunderground v.1.15,2013-02-02 16:11:00,
2013-02-02 10:13:00,24.2,18.0,30.08,NW,315,1.0,2.0,77,0.00,,,0.00,Wunderground v.1.15,2013-02-02 16:13:00,
2013-02-02 10:15:00,24.2,18.0,30.09,NW,309,2.0,2.0,77,0.00,,,0.00,Wunderground v.1.15,2013-02-02 16:15:00,
2013-02-02 10:20:00,24.1,17.9,30.09,NNW,337,2.0,3.0,77,0.00,,,0.00,Wunderground v.1.15,2013-02-02 16:20:00,
2013-02-02 10:21:00,24.1,17.9,30.09,NW,315,2.0,2.0,77,0.00,,,0.00,Wunderground v.1.15,2013-02-02 16:21:00,
2013-02-02 10:23:00,24.1,17.9,30.09,NNW,329,2.0,2.0,77,0.00,,,0.00,Wunderground v.1.15,2013-02-02 16:23:00,
2013-02-02 10:28:00,24.1,17.9,30.09,NNW,330,1.0,2.0,77,0.00,,,0.00,Wunderground v.1.15,2013-02-02 16:28:00,
2013-02-02 10:30:00,24.1,17.9,30.10,NNW,336,1.0,6.0,77,0.00,,,0.00,Wunderground v.1.15,2013-02-02 16:30:00,
2013-02-02 10:31:00,23.9,17.7,30.10,NNW,333,1.0,2.0,77,0.00,,,0.00,Wunderground v.1.15,2013-02-02 16:31:00,
2013-02-02 10:38:00,23.8,17.6,30.10,NNW,335,2.0,6.0,77,0.00,,,0.00,Wunderground v.1.15,2013-02-02 16:38:00,
2013-02-02 10:40:00,23.6,17.4,30.10,North,359,2.0,6.0,77,0.00,,,0.00,Wunderground v.1.15,2013-02-02 16:40:00,
2013-02-02 10:45:00,23.5,17.3,30.10,NW,322,3.0,12.0,77,0.00,,,0.00,Wunderground v.1.15,2013-02-02 16:45:00,
2013-02-02 10:50:00,23.2,16.8,30.10,NNW,344,3.0,12.0,76,0.00,,,0.00,Wunderground v.1.15,2013-02-02 16:50:00,
2013-02-02 10:54:00,23.0,16.6,30.10,NW,320,3.0,6.0,76,0.00,,,0.00,Wunderground v.1.15,2013-02-02 16:54:00,
2013-02-02 10:58:00,23.0,16.6,30.10,NNW,346,2.0,6.0,76,0.00,,,0.00,Wunderground v.1.15,2013-02-02 16:58:00,
2013-02-02 11:00:00,23.0,16.6,30.11,NNW,335,2.0,6.0,76,0.00,,,0.00,Wunderground v.1.15,2013-02-02 17:00:00,
2013-02-02 11:03:00,22.7,16.3,30.11,NW,315,3.0,6.0,76,0.00,,,0.00,Wunderground v.1.15,2013-02-02 17:03:00,
2013-02-02 11:06:00,22.6,16.2,30.11,NNW,333,4.0,7.0,76,0.00,,,0.00,Wunderground v.1.15,2013-02-02 17:06:00,
2013-02-02 11:10:00,22.3,15.6,30.11,NW,313,4.0,7.0,75,0.00,,,0.00,Wunderground v.1.15,2013-02-02 17:10:00,
2013-02-02 11:11:00,22.1,15.4,30.11,NNW,337,4.0,4.0,75,0.00,,,0.00,Wunderground v.1.15,2013-02-02 17:11:00,
2013-02-02 11:15:00,22.1,15.7,30.11,NW,318,3.0,4.0,76,0.00,,,0.00,Wunderground v.1.15,2013-02-02 17:15:00,
2013-02-02 11:18:00,22.1,15.7,30.11,NNW,344,2.0,4.0,76,0.00,,,0.00,Wunderground v.1.15,2013-02-02 17:18:00,
2013-02-02 11:22:00,22.1,15.7,30.11,NNW,336,2.0,2.0,76,0.00,,,0.00,Wunderground v.1.15,2013-02-02 17:22:00,
2013-02-02 11:23:00,22.1,15.7,30.11,North,0,2.0,7.0,76,0.00,,,0.00,Wunderground v.1.15,2013-02-02 17:23:00,
2013-02-02 11:30:00,22.1,15.7,30.11,NNW,336,1.0,7.0,76,0.00,,,0.00,Wunderground v.1.15,2013-02-02 17:30:00,
2013-02-02 11:31:00,22.1,15.7,30.11,NNW,342,1.0,3.0,76,0.00,,,0.00,Wunderground v.1.15,2013-02-02 17:31:00,
2013-02-02 11:33:00,21.9,15.5,30.11,NNW,340,1.0,3.0,76,0.00,,,0.00,Wunderground v.1.15,2013-02-02 17:33:00,
2013-02-02 11:35:00,21.8,15.1,30.11,NNW,343,1.0,3.0,75,0.00,,,0.00,Wunderground v.1.15,2013-02-02 17:35:00,
2013-02-02 11:38:00,21.8,15.4,30.11,NNW,328,2.0,5.0,76,0.00,,,0.00,Wunderground v.1.15,2013-02-02 17:38:00,
2013-02-02 11:41:00,21.6,15.2,30.11,NNW,336,3.0,3.0,76,0.00,,,0.00,Wunderground v.1.15,2013-02-02 17:41:00,
2013-02-02 11:45:00,21.3,14.9,30.12,NNE,16,3.0,3.0,76,0.00,,,0.00,Wunderground v.1.15,2013-02-02 17:45:00,
2013-02-02 11:48:00,21.3,14.9,30.12,NNW,337,2.0,3.0,76,0.00,,,0.00,Wunderground v.1.15,2013-02-02 17:48:00,
2013-02-02 11:52:00,21.0,14.6,30.12,NNW,328,2.0,2.0,76,0.00,,,0.00,Wunderground v.1.15,2013-02-02 17:52:00,
2013-02-02 11:53:00,20.8,14.1,30.12,NNW,343,2.0,2.0,75,0.00,,,0.00,Wunderground v.1.15,2013-02-02 17:53:00,
2013-02-02 11:55:00,20.7,14.3,30.12,NNW,332,2.0,2.0,76,0.00,,,0.00,Wunderground v.1.15,2013-02-02 17:55:00,
2013-02-02 11:58:00,20.7,14.3,30.12,North,0,1.0,2.0,76,0.00,,,0.00,Wunderground v.1.15,2013-02-02 17:58:00,
2013-02-02 12:00:00,20.5,14.1,30.12,North,349,2.0,5.0,76,0.00,,,0.00,Wunderground v.1.15,2013-02-02 18:00:00,
2013-02-02 12:01:00,20.5,13.8,30.12,North,357,2.0,4.0,75,0.00,,,0.00,Wunderground v.1.15,2013-02-02 18:01:00,
2013-02-02 12:06:00,20.4,13.7,30.12,West,278,3.0,4.0,75,0.00,,,0.00,Wunderground v.1.15,2013-02-02 18:06:00,
2013-02-02 12:08:00,20.4,13.7,30.12,North,350,3.0,4.0,75,0.00,,,0.00,Wunderground v.1.15,2013-02-02 18:08:00,
2013-02-02 12:11:00,20.4,13.7,30.12,North,0,3.0,3.0,75,0.00,,,0.00,Wunderground v.1.15,2013-02-02 18:11:00,
2013-02-02 12:13:00,20.5,13.8,30.12,NW,306,3.0,3.0,75,0.00,,,0.00,Wunderground v.1.15,2013-02-02 18:13:00,
2013-02-02 12:18:00,20.5,13.2,30.12,NNW,330,3.0,6.0,73,0.00,,,0.00,Wunderground v.1.15,2013-02-02 18:18:00,
2013-02-02 12:20:00,20.5,13.2,30.12,NNW,336,2.0,6.0,73,0.00,,,0.00,Wunderground v.1.15,2013-02-02 18:20:00,
2013-02-02 12:21:00,20.5,13.2,30.12,North,356,2.0,2.0,73,0.00,,,0.00,Wunderground v.1.15,2013-02-02 18:21:00,
2013-02-02 12:28:00,20.7,13.1,30.12,NW,311,2.0,5.0,72,0.00,,,0.00,Wunderground v.1.15,2013-02-02 18:28:00,
2013-02-02 12:31:00,20.7,12.8,30.12,North,356,3.0,3.0,71,0.00,,,0.00,Wunderground v.1.15,2013-02-02 18:31:00,
2013-02-02 12:38:00,20.7,12.1,30.12,NNW,344,4.0,4.0,69,0.00,,,0.00,Wunderground v.1.15,2013-02-02 18:38:00,
2013-02-02 12:40:00,20.5,11.9,30.12,NW,318,3.0,4.0,69,0.00,,,0.00,Wunderground v.1.15,2013-02-02 18:40:00,
2013-02-02 12:41:00,20.4,12.2,30.12,NW,306,3.0,6.0,70,0.00,,,0.00,Wunderground v.1.15,2013-02-02 18:41:00,
2013-02-02 12:43:00,20.2,11.7,30.12,North,359,4.0,6.0,69,0.00,,,0.00,Wunderground v.1.15,2013-02-02 18:43:00,
2013-02-02 12:48:00,20.0,11.5,30.13,North,353,2.0,6.0,69,0.00,,,0.00,Wunderground v.1.15,2013-02-02 18:48:00,
2013-02-02 12:51:00,19.9,11.4,30.13,NNE,23,2.0,2.0,69,0.00,,,0.00,Wunderground v.1.15,2013-02-02 18:51:00,
2013-02-02 12:53:00,19.9,11.4,30.13,NW,305,1.0,2.0,69,0.00,,,0.00,Wunderground v.1.15,2013-02-02 18:53:00,
2013-02-02 12:58:00,19.9,11.4,30.13,NNW,337,1.0,2.0,69,0.00,,,0.00,Wunderground v.1.15,2013-02-02 18:58:00,
2013-02-02 13:06:00,19.9,11.0,30.12,NW,326,1.0,2.0,68,0.00,,,0.00,Wunderground v.1.15,2013-02-02 19:06:00,
2013-02-02 13:08:00,19.9,11.4,30.12,NW,311,1.0,3.0,69,0.00,,,0.00,Wunderground v.1.15,2013-02-02 19:08:00,
2013-02-02 13:11:00,19.9,11.0,30.12,NW,323,2.0,6.0,68,0.00,,,0.00,Wunderground v.1.15,2013-02-02 19:11:00,
2013-02-02 13:13:00,19.7,10.8,30.12,NNW,347,3.0,6.0,68,0.00,,,0.00,Wunderground v.1.15,2013-02-02 19:13:00,
2013-02-02 13:18:00,19.9,11.4,30.12,West,277,2.0,6.0,69,0.00,,,0.00,Wunderground v.1.15,2013-02-02 19:18:00,
2013-02-02 13:21:00,20.2,11.3,30.12,North,352,1.0,1.0,68,0.00,,,0.00,Wunderground v.1.15,2013-02-02 19:21:00,
2013-02-02 13:23:00,20.2,11.3,30.12,NW,305,1.0,5.0,68,0.00,,,0.00,Wunderground v.1.15,2013-02-02 19:23:00,
2013-02-02 13:28:00,19.9,10.7,30.12,NNW,328,2.0,5.0,67,0.00,,,0.00,Wunderground v.1.15,2013-02-02 19:28:00,
2013-02-02 13:31:00,19.7,10.8,30.12,NNW,329,2.0,2.0,68,0.00,,,0.00,Wunderground v.1.15,2013-02-02 19:31:00,
2013-02-02 13:35:00,19.6,10.4,30.12,NW,312,2.0,2.0,67,0.00,,,0.00,Wunderground v.1.15,2013-02-02 19:35:00,
2013-02-02 13:40:00,19.6,11.1,30.12,NW,305,2.0,3.0,69,0.00,,,0.00,Wunderground v.1.15,2013-02-02 19:40:00,
2013-02-02 13:41:00,19.4,10.9,30.12,NNW,337,3.0,3.0,69,0.00,,,0.00,Wunderground v.1.15,2013-02-02 19:41:00,
2013-02-02 13:44:00,19.1,10.9,30.12,NW,320,2.0,3.0,70,0.00,,,0.00,Wunderground v.1.15,2013-02-02 19:44:00,
2013-02-02 13:48:00,19.1,10.9,30.12,North,359,2.0,3.0,70,0.00,,,0.00,Wunderground v.1.15,2013-02-02 19:48:00,
2013-02-02 13:50:00,19.3,10.8,30.12,NW,320,2.0,3.0,69,0.00,,,0.00,Wunderground v.1.15,2013-02-02 19:50:00,
2013-02-02 13:53:00,19.4,11.2,30.12,NNW,337,1.0,3.0,70,0.00,,,0.00,Wunderground v.1.15,2013-02-02 19:53:00,
2013-02-02 13:55:00,19.3,11.1,30.12,NW,318,1.0,3.0,70,0.00,,,0.00,Wunderground v.1.15,2013-02-02 19:55:00,
2013-02-02 13:58:00,19.1,11.2,30.12,NNW,343,2.0,4.0,71,0.00,,,0.00,Wunderground v.1.15,2013-02-02 19:58:00,
2013-02-02 14:01:00,18.9,11.0,30.13,NW,326,2.0,2.0,71,0.00,,,0.00,Wunderground v.1.15,2013-02-02 20:01:00,
2013-02-02 14:03:00,18.9,11.0,30.13,NW,325,3.0,3.0,71,0.00,,,0.00,Wunderground v.1.15,2013-02-02 20:03:00,
2013-02-02 14:06:00,18.9,10.7,30.13,NW,315,3.0,3.0,70,0.00,,,0.00,Wunderground v.1.15,2013-02-02 20:06:00,
2013-02-02 14:11:00,19.3,11.4,30.13,NNW,336,2.0,2.0,71,0.00,,,0.00,Wunderground v.1.15,2013-02-02 20:11:00,
2013-02-02 14:13:00,19.4,11.2,30.13,NNW,339,1.0,2.0,70,0.00,,,0.00,Wunderground v.1.15,2013-02-02 20:13:00,
2013-02-02 14:15:00,19.4,11.5,30.14,NW,311,1.0,13.0,71,0.00,,,0.00,Wunderground v.1.15,2013-02-02 20:15:00,
2013-02-02 14:20:00,19.3,11.1,30.14,NW,323,2.0,13.0,70,0.00,,,0.00,Wunderground v.1.15,2013-02-02 20:20:00,
2013-02-02 14:22:00,19.3,11.1,30.14,NW,315,2.0,2.0,70,0.00,,,0.00,Wunderground v.1.15,2013-02-02 20:22:00,
2013-02-02 14:28:00,19.1,10.9,30.14,NW,313,1.0,6.0,70,0.00,,,0.00,Wunderground v.1.15,2013-02-02 20:28:00,
2013-02-02 14:30:00,18.9,11.0,30.14,North,359,1.0,6.0,71,0.00,,,0.00,Wunderground v.1.15,2013-02-02 20:30:00,
2013-02-02 14:38:00,18.8,11.3,30.14,NW,308,2.0,5.0,72,0.00,,,0.00,Wunderground v.1.15,2013-02-02 20:38:00,
2013-02-02 14:40:00,18.8,11.3,30.14,NW,306,2.0,5.0,72,0.00,,,0.00,Wunderground v.1.15,2013-02-02 20:40:00,
2013-02-02 14:41:00,18.8,11.3,30.14,NNW,329,2.0,2.0,72,0.00,,,0.00,Wunderground v.1.15,2013-02-02 20:41:00,
2013-02-02 14:43:00,18.6,10.8,30.14,NNW,346,1.0,2.0,71,0.00,,,0.00,Wunderground v.1.15,2013-02-02 20:43:00,
2013-02-02 14:48:00,18.6,10.1,30.14,WNW,294,2.0,4.0,69,0.00,,,0.00,Wunderground v.1.15,2013-02-02 20:48:00,
2013-02-02 14:51:00,18.6,9.8,30.14,WNW,302,3.0,3.0,68,0.00,,,0.00,Wunderground v.1.15,2013-02-02 20:51:00,
2013-02-02 14:53:00,18.6,9.8,30.14,NNW,330,3.0,3.0,68,0.00,,,0.00,Wunderground v.1.15,2013-02-02 20:53:00,
2013-02-02 14:55:00,18.6,9.8,30.14,NNW,339,3.0,3.0,68,0.00,,,0.00,Wunderground v.1.15,2013-02-02 20:55:00,
2013-02-02 15:00:00,18.6,9.5,30.14,NNW,329,2.0,3.0,67,0.00,,,0.00,Wunderground v.1.15,2013-02-02 21:00:00,
2013-02-02 15:01:00,18.6,9.5,30.14,NW,318,2.0,2.0,67,0.00,,,0.00,Wunderground v.1.15,2013-02-02 21:01:00,
2013-02-02 15:08:00,18.6,9.5,30.14,NW,320,2.0,2.0,67,0.00,,,0.00,Wunderground v.1.15,2013-02-02 21:08:00,
2013-02-02 15:10:00,18.6,9.1,30.14,NW,313,2.0,7.0,66,0.00,,,0.00,Wunderground v.1.15,2013-02-02 21:10:00,
2013-02-02 15:11:00,18.6,9.1,30.14,NNW,332,2.0,5.0,66,0.00,,,0.00,Wunderground v.1.15,2013-02-02 21:11:00,
2013-02-02 15:18:00,18.5,9.0,30.14,NW,318,2.0,5.0,66,0.00,,,0.00,Wunderground v.1.15,2013-02-02 21:18:00,
2013-02-02 15:21:00,18.5,9.0,30.14,NNW,336,2.0,2.0,66,0.00,,,0.00,Wunderground v.1.15,2013-02-02 21:21:00,
2013-02-02 15:25:00,18.6,9.1,30.14,NNW,336,2.0,2.0,66,0.00,,,0.00,Wunderground v.1.15,2013-02-02 21:25:00,
2013-02-02 15:31:00,18.8,9.0,30.14,NNW,339,2.0,4.0,65,0.00,,,0.00,Wunderground v.1.15,2013-02-02 21:31:00,
2013-02-02 15:33:00,18.8,9.0,30.14,North,353,2.0,4.0,65,0.00,,,0.00,Wunderground v.1.15,2013-02-02 21:33:00,
2013-02-02 15:38:00,18.8,9.0,30.14,NNW,332,2.0,4.0,65,0.00,,,0.00,Wunderground v.1.15,2013-02-02 21:38:00,
2013-02-02 15:40:00,18.8,9.0,30.14,NNW,329,1.0,4.0,65,0.00,,,0.00,Wunderground v.1.15,2013-02-02 21:40:00,
2013-02-02 15:41:00,18.8,9.0,30.14,NW,308,1.0,2.0,65,0.00,,,0.00,Wunderground v.1.15,2013-02-02 21:41:00,
2013-02-02 15:46:00,18.8,9.0,30.14,NW,326,2.0,3.0,65,0.00,,,0.00,Wunderground v.1.15,2013-02-02 21:46:00,
2013-02-02 15:48:00,18.8,9.0,30.14,NNW,330,1.0,3.0,65,0.00,,,0.00,Wunderground v.1.15,2013-02-02 21:48:00,
2013-02-02 15:50:00,18.8,9.0,30.14,WSW,240,2.0,3.0,65,0.00,,,0.00,Wunderground v.1.15,2013-02-02 21:50:00,
2013-02-02 15:51:00,18.8,9.0,30.14,NNW,332,2.0,7.0,65,0.00,,,0.00,Wunderground v.1.15,2013-02-02 21:51:00,
2013-02-02 15:58:00,18.6,8.4,30.14,NNW,343,3.0,7.0,64,0.00,,,0.00,Wunderground v.1.15,2013-02-02 21:58:00,
2013-02-02 16:00:00,18.5,8.7,30.14,NW,320,2.0,3.0,65,0.00,,,0.00,Wunderground v.1.15,2013-02-02 22:00:00,
2013-02-02 16:01:00,18.5,8.7,30.14,NNW,328,2.0,3.0,65,0.00,,,0.00,Wunderground v.1.15,2013-02-02 22:01:00,
2013-02-02 16:03:00,18.3,8.5,30.14,NNW,328,2.0,3.0,65,0.00,,,0.00,Wunderground v.1.15,2013-02-02 22:03:00,
2013-02-02 16:08:00,18.3,8.5,30.14,NW,325,2.0,3.0,65,0.00,,,0.00,Wunderground v.1.15,2013-02-02 22:08:00,
2013-02-02 16:10:00,18.2,8.4,30.14,WNW,289,2.0,3.0,65,0.00,,,0.00,Wunderground v.1.15,2013-02-02 22:10:00,
2013-02-02 16:12:00,18.2,8.4,30.14,NNW,336,2.0,2.0,65,0.00,,,0.00,Wunderground v.1.15,2013-02-02 22:12:00,
2013-02-02 16:15:00,18.0,8.2,30.15,NW,306,1.0,2.0,65,0.00,,,0.00,Wunderground v.1.15,2013-02-02 22:15:00,
2013-02-02 16:18:00,18.0,7.9,30.15,WNW,287,1.0,2.0,64,0.00,,,0.00,Wunderground v.1.15,2013-02-02 22:18:00,
2013-02-02 16:21:00,18.0,8.2,30.15,WNW,301,1.0,1.0,65,0.00,,,0.00,Wunderground v.1.15,2013-02-02 22:21:00,
2013-02-02 16:23:00,18.0,8.2,30.15,NW,313,1.0,2.0,65,0.00,,,0.00,Wunderground v.1.15,2013-02-02 22:23:00,
2013-02-02 16:25:00,18.0,8.2,30.15,NW,323,0.0,2.0,65,0.00,,,0.00,Wunderground v.1.15,2013-02-02 22:25:00,
2013-02-02 16:31:00,17.8,8.0,30.16,North,0,1.0,1.0,65,0.00,,,0.00,Wunderground v.1.15,2013-02-02 22:31:00,
2013-02-02 16:33:00,17.7,7.9,30.16,NNW,347,1.0,1.0,65,0.00,,,0.00,Wunderground v.1.15,2013-02-02 22:33:00,
2013-02-02 16:38:00,17.7,8.3,30.16,North,354,1.0,1.0,66,0.00,,,0.00,Wunderground v.1.15,2013-02-02 22:38:00,
2013-02-02 16:41:00,17.7,8.3,30.16,North,0,1.0,1.0,66,0.00,,,0.00,Wunderground v.1.15,2013-02-02 22:41:00,
2013-02-02 16:43:00,17.7,8.3,30.16,North,352,0.0,1.0,66,0.00,,,0.00,Wunderground v.1.15,2013-02-02 22:43:00,
2013-02-02 16:45:00,17.7,8.3,30.16,NW,318,1.0,1.0,66,0.00,,,0.00,Wunderground v.1.15,2013-02-02 22:45:00,
2013-02-02 16:48:00,17.7,8.3,30.16,NW,311,2.0,3.0,66,0.00,,,0.00,Wunderground v.1.15,2013-02-02 22:48:00,
2013-02-02 16:52:00,17.7,8.6,30.16,NNW,329,1.0,2.0,67,0.00,,,0.00,Wunderground v.1.15,2013-02-02 22:52:00,
2013-02-02 16:55:00,17.7,8.6,30.16,WNW,301,1.0,2.0,67,0.00,,,0.00,Wunderground v.1.15,2013-02-02 22:55:00,
2013-02-02 16:58:00,17.7,8.6,30.16,WNW,291,1.0,2.0,67,0.00,,,0.00,Wunderground v.1.15,2013-02-02 22:58:00,
2013-02-02 17:01:00,17.7,8.6,30.16,NW,308,1.0,1.0,67,0.00,,,0.00,Wunderground v.1.15,2013-02-02 23:01:00,
2013-02-02 17:03:00,17.7,8.6,30.16,NW,312,1.0,1.0,67,0.00,,,0.00,Wunderground v.1.15,2013-02-02 23:03:00,
2013-02-02 17:08:00,17.7,8.9,30.16,NW,313,1.0,2.0,68,0.00,,,0.00,Wunderground v.1.15,2013-02-02 23:08:00,
2013-02-02 17:10:00,17.5,8.7,30.16,North,359,1.0,2.0,68,0.00,,,0.00,Wunderground v.1.15,2013-02-02 23:10:00,
2013-02-02 17:13:00,17.5,8.7,30.16,NW,318,0.0,1.0,68,0.00,,,0.00,Wunderground v.1.15,2013-02-02 23:13:00,
2013-02-02 17:18:00,17.5,8.7,30.15,NNW,332,0.0,1.0,68,0.00,,,0.00,Wunderground v.1.15,2013-02-02 23:18:00,
2013-02-02 17:20:00,17.5,9.1,30.15,WNW,287,0.0,1.0,69,0.00,,,0.00,Wunderground v.1.15,2013-02-02 23:20:00,
2013-02-02 17:21:00,17.5,9.1,30.15,WNW,287,0.0,0.0,69,0.00,,,0.00,Wunderground v.1.15,2013-02-02 23:21:00,
2013-02-02 17:25:00,17.5,9.1,30.15,WNW,298,0.0,0.0,69,0.00,,,0.00,Wunderground v.1.15,2013-02-02 23:25:00,
2013-02-02 17:28:00,17.4,9.0,30.15,NW,316,0.0,0.0,69,0.00,,,0.00,Wunderground v.1.15,2013-02-02 23:28:00,
2013-02-02 17:33:00,17.2,8.8,30.15,NW,319,0.0,3.0,69,0.00,,,0.00,Wunderground v.1.15,2013-02-02 23:33:00,
2013-02-02 17:38:00,17.2,8.4,30.15,WNW,296,1.0,3.0,68,0.00,,,0.00,Wunderground v.1.15,2013-02-02 23:38:00,
2013-02-02 17:40:00,17.1,8.3,30.15,NW,309,1.0,3.0,68,0.00,,,0.00,Wunderground v.1.15,2013-02-02 23:40:00,
2013-02-02 17:48:00,17.1,8.7,30.15,NW,305,1.0,2.0,69,0.00,,,0.00,Wunderground v.1.15,2013-02-02 23:48:00,
2013-02-02 17:50:00,16.9,8.5,30.15,NW,304,0.0,2.0,69,0.00,,,0.00,Wunderground v.1.15,2013-02-02 23:50:00,
2013-02-02 17:51:00,16.9,8.5,30.15,NW,305,0.0,0.0,69,0.00,,,0.00,Wunderground v.1.15,2013-02-02 23:51:00,
2013-02-02 17:53:00,16.9,8.5,30.15,NW,309,0.0,0.0,69,0.00,,,0.00,Wunderground v.1.15,2013-02-02 23:53:00,
2013-02-02 17:58:00,16.9,8.8,30.15,NW,312,0.0,2.0,70,0.00,,,0.00,Wunderground v.1.15,2013-02-02 23:58:00,
2013-02-02 18:00:00,16.9,8.8,30.15,WNW,302,0.0,2.0,70,0.00,,,0.00,Wunderground v.1.15,2013-02-03 00:00:00,
2013-02-02 18:03:00,16.7,8.6,30.15,West,267,0.0,1.0,70,0.00,,,0.00,Wunderground v.1.15,2013-02-03 00:03:00,
2013-02-02 18:08:00,16.7,8.6,30.15,WNW,284,0.0,1.0,70,0.00,,,0.00,Wunderground v.1.15,2013-02-03 00:08:00,
2013-02-02 18:13:00,16.7,8.9,30.15,WNW,299,0.0,0.0,71,0.00,,,0.00,Wunderground v.1.15,2013-02-03 00:13:00,
2013-02-02 18:18:00,16.7,8.9,30.15,NW,318,0.0,0.0,71,0.00,,,0.00,Wunderground v.1.15,2013-02-03 00:18:00,
2013-02-02 18:21:00,16.7,8.9,30.15,WNW,292,0.0,0.0,71,0.00,,,0.00,Wunderground v.1.15,2013-02-03 00:21:00,
2013-02-02 18:23:00,16.7,8.9,30.15,NW,316,0.0,0.0,71,0.00,,,0.00,Wunderground v.1.15,2013-02-03 00:23:00,
2013-02-02 18:25:00,16.7,8.9,30.15,NW,315,0.0,0.0,71,0.00,,,0.00,Wunderground v.1.15,2013-02-03 00:25:00,
2013-02-02 18:31:00,16.7,8.9,30.14,WNW,291,0.0,0.0,71,0.00,,,0.00,Wunderground v.1.15,2013-02-03 00:31:00,
2013-02-02 18:33:00,16.7,8.9,30.14,WNW,296,0.0,0.0,71,0.00,,,0.00,Wunderground v.1.15,2013-02-03 00:33:00,
2013-02-02 18:35:00,16.7,8.9,30.14,WNW,296,0.0,0.0,71,0.00,,,0.00,Wunderground v.1.15,2013-02-03 00:35:00,
2013-02-02 18:40:00,16.7,9.2,30.14,WNW,301,0.0,0.0,72,0.00,,,0.00,Wunderground v.1.15,2013-02-03 00:40:00,
2013-02-02 18:41:00,16.7,9.2,30.14,WNW,301,0.0,0.0,72,0.00,,,0.00,Wunderground v.1.15,2013-02-03 00:41:00,
2013-02-02 18:43:00,16.7,9.2,30.14,WNW,294,0.0,0.0,72,0.00,,,0.00,Wunderground v.1.15,2013-02-03 00:43:00,
2013-02-02 18:45:00,16.7,9.2,30.15,NW,308,0.0,0.0,72,0.00,,,0.00,Wunderground v.1.15,2013-02-03 00:45:00,
2013-02-02 18:48:00,16.7,9.2,30.15,NW,313,0.0,0.0,72,0.00,,,0.00,Wunderground v.1.15,2013-02-03 00:48:00,
2013-02-02 18:50:00,16.7,9.2,30.15,NW,311,0.0,0.0,72,0.00,,,0.00,Wunderground v.1.15,2013-02-03 00:50:00,
2013-02-02 18:55:00,16.7,9.2,30.15,NW,311,0.0,0.0,72,0.00,,,0.00,Wunderground v.1.15,2013-02-03 00:55:00,
2013-02-02 18:58:00,16.7,9.2,30.15,NW,311,0.0,0.0,72,0.00,,,0.00,Wunderground v.1.15,2013-02-03 00:58:00,
2013-02-02 19:02:00,16.7,9.2,30.14,WNW,282,0.0,0.0,72,0.00,,,0.00,Wunderground v.1.15,2013-02-03 01:02:00,
2013-02-02 19:04:00,16.7,9.2,30.14,WNW,282,0.0,0.0,72,0.00,,,0.00,Wunderground v.1.15,2013-02-03 01:04:00,
2013-02-02 19:06:00,16.7,9.2,30.14,WNW,282,0.0,0.0,72,0.00,,,0.00,Wunderground v.1.15,2013-02-03 01:06:00,
2013-02-02 19:11:00,16.6,9.4,30.14,WNW,284,0.0,0.0,73,0.00,,,0.00,Wunderground v.1.15,2013-02-03 01:11:00,
2013-02-02 19:18:00,16.6,9.4,30.14,WNW,284,0.0,0.0,73,0.00,,,0.00,Wunderground v.1.15,2013-02-03 01:18:00,
2013-02-02 19:20:00,16.6,9.4,30.14,WNW,284,0.0,0.0,73,0.00,,,0.00,Wunderground v.1.15,2013-02-03 01:20:00,
2013-02-02 19:21:00,16.6,9.4,30.14,WNW,284,0.0,0.0,73,0.00,,,0.00,Wunderground v.1.15,2013-02-03 01:21:00,
2013-02-02 19:23:00,16.6,9.8,30.14,WNW,284,0.0,0.0,74,0.00,,,0.00,Wunderground v.1.15,2013-02-03 01:23:00,
2013-02-02 19:25:00,16.6,9.4,30.14,WNW,284,0.0,0.0,73,0.00,,,0.00,Wunderground v.1.15,2013-02-03 01:25:00,
2013-02-02 19:28:00,16.6,9.8,30.14,WNW,284,0.0,0.0,74,0.00,,,0.00,Wunderground v.1.15,2013-02-03 01:28:00,
2013-02-02 19:31:00,16.4,9.6,30.14,WNW,284,0.0,0.0,74,0.00,,,0.00,Wunderground v.1.15,2013-02-03 01:31:00,
2013-02-02 19:33:00,16.4,9.6,30.14,WNW,284,0.0,0.0,74,0.00,,,0.00,Wunderground v.1.15,2013-02-03 01:33:00,
2013-02-02 19:35:00,16.3,9.5,30.14,WNW,284,0.0,0.0,74,0.00,,,0.00,Wunderground v.1.15,2013-02-03 01:35:00,
2013-02-02 19:40:00,16.3,9.5,30.14,WNW,284,0.0,0.0,74,0.00,,,0.00,Wunderground v.1.15,2013-02-03 01:40:00,
2013-02-02 19:42:00,16.3,9.8,30.14,WNW,284,0.0,0.0,75,0.00,,,0.00,Wunderground v.1.15,2013-02-03 01:42:00,
2013-02-02 19:43:00,16.1,9.6,30.14,WNW,284,0.0,0.0,75,0.00,,,0.00,Wunderground v.1.15,2013-02-03 01:43:00,
2013-02-02 19:45:00,16.1,9.6,30.14,WNW,284,0.0,0.0,75,0.00,,,0.00,Wunderground v.1.15,2013-02-03 01:45:00,
2013-02-02 19:48:00,16.1,9.6,30.14,WNW,284,0.0,0.0,75,0.00,,,0.00,Wunderground v.1.15,2013-02-03 01:48:00,
2013-02-02 19:50:00,16.1,9.6,30.14,WNW,284,0.0,0.0,75,0.00,,,0.00,Wunderground v.1.15,2013-02-03 01:50:00,
2013-02-02 19:51:00,16.1,9.6,30.14,WNW,284,0.0,0.0,75,0.00,,,0.00,Wunderground v.1.15,2013-02-03 01:51:00,
2013-02-02 19:54:00,16.1,9.6,30.14,WNW,284,0.0,0.0,75,0.00,,,0.00,Wunderground v.1.15,2013-02-03 01:54:00,
2013-02-02 19:58:00,16.1,9.9,30.14,WNW,284,0.0,0.0,76,0.00,,,0.00,Wunderground v.1.15,2013-02-03 01:58:00,
2013-02-02 20:00:00,16.1,9.9,30.13,WNW,284,0.0,0.0,76,0.00,,,0.00,Wunderground v.1.15,2013-02-03 02:00:00,
2013-02-02 20:02:00,16.1,9.9,30.13,WNW,284,0.0,0.0,76,0.00,,,0.00,Wunderground v.1.15,2013-02-03 02:02:00,
2013-02-02 20:04:00,16.1,9.9,30.13,WNW,284,0.0,0.0,76,0.00,,,0.00,Wunderground v.1.15,2013-02-03 02:04:00,
2013-02-02 20:12:00,16.3,10.1,30.13,WNW,284,0.0,0.0,76,0.00,,,0.00,Wunderground v.1.15,2013-02-03 02:12:00,
2013-02-02 20:15:00,16.3,10.1,30.13,WNW,284,0.0,0.0,76,0.00,,,0.00,Wunderground v.1.15,2013-02-03 02:15:00,
2013-02-02 20:18:00,16.3,10.1,30.13,WNW,284,0.0,0.0,76,0.00,,,0.00,Wunderground v.1.15,2013-02-03 02:18:00,
2013-02-02 20:21:00,16.4,10.2,30.13,WNW,284,0.0,0.0,76,0.00,,,0.00,Wunderground v.1.15,2013-02-03 02:21:00,
2013-02-02 20:23:00,16.4,10.2,30.13,WNW,284,0.0,0.0,76,0.00,,,0.00,Wunderground v.1.15,2013-02-03 02:23:00,
2013-02-02 20:28:00,16.4,10.2,30.13,WNW,284,0.0,0.0,76,0.00,,,0.00,Wunderground v.1.15,2013-02-03 02:28:00,
2013-02-02 20:30:00,16.4,10.2,30.12,WNW,284,0.0,0.0,76,0.00,,,0.00,Wunderground v.1.15,2013-02-03 02:30:00,
2013-02-02 20:31:00,16.4,10.2,30.12,WNW,284,0.0,0.0,76,0.00,,,0.00,Wunderground v.1.15,2013-02-03 02:31:00,
2013-02-02 20:33:00,16.4,9.9,30.12,WNW,284,0.0,0.0,75,0.00,,,0.00,Wunderground v.1.15,2013-02-03 02:33:00,
2013-02-02 20:38:00,16.6,10.1,30.12,WNW,284,0.0,0.0,75,0.00,,,0.00,Wunderground v.1.15,2013-02-03 02:38:00,
2013-02-02 20:43:00,16.6,10.1,30.12,WNW,284,0.0,0.0,75,0.00,,,0.00,Wunderground v.1.15,2013-02-03 02:43:00,
2013-02-02 20:45:00,16.6,10.1,30.10,WNW,284,0.0,0.0,75,0.00,,,0.00,Wunderground v.1.15,2013-02-03 02:45:00,
2013-02-02 20:50:00,16.7,10.1,30.10,WNW,284,0.0,0.0,75,0.00,,,0.00,Wunderground v.1.15,2013-02-03 02:50:00,
2013-02-02 20:51:00,16.7,10.1,30.10,WNW,284,0.0,0.0,75,0.00,,,0.00,Wunderground v.1.15,2013-02-03 02:51:00,
2013-02-02 20:53:00,16.7,10.4,30.10,WNW,284,0.0,0.0,76,0.00,,,0.00,Wunderground v.1.15,2013-02-03 02:53:00,
2013-02-02 20:56:00,16.9,10.6,30.10,WNW,284,0.0,0.0,76,0.00,,,0.00,Wunderground v.1.15,2013-02-03 02:56:00,
2013-02-02 21:02:00,16.9,10.6,30.12,WNW,284,0.0,0.0,76,0.00,,,0.00,Wunderground v.1.15,2013-02-03 03:02:00,
2013-02-02 21:04:00,17.1,10.8,30.12,WNW,284,0.0,0.0,76,0.00,,,0.00,Wunderground v.1.15,2013-02-03 03:04:00,
2013-02-02 21:06:00,17.1,10.8,30.12,WNW,282,0.0,0.0,76,0.00,,,0.00,Wunderground v.1.15,2013-02-03 03:06:00,
2013-02-02 21:10:00,17.1,10.8,30.12,WNW,282,0.0,0.0,76,0.00,,,0.00,Wunderground v.1.15,2013-02-03 03:10:00,
2013-02-02 21:12:00,17.1,10.8,30.12,West,274,0.0,0.0,76,0.00,,,0.00,Wunderground v.1.15,2013-02-03 03:12:00,
2013-02-02 21:14:00,17.2,10.9,30.12,West,270,0.0,0.0,76,0.00,,,0.00,Wunderground v.1.15,2013-02-03 03:14:00,
2013-02-02 21:15:00,17.2,10.9,30.11,West,270,0.0,0.0,76,0.00,,,0.00,Wunderground v.1.15,2013-02-03 03:15:00,
2013-02-02 21:18:00,17.2,10.9,30.11,West,270,0.0,0.0,76,0.00,,,0.00,Wunderground v.1.15,2013-02-03 03:18:00,
2013-02-02 21:21:00,17.2,10.9,30.11,West,271,0.0,0.0,76,0.00,,,0.00,Wunderground v.1.15,2013-02-03 03:21:00,
2013-02-02 21:24:00,17.2,10.9,30.11,West,270,0.0,0.0,76,0.00,,,0.00,Wunderground v.1.15,2013-02-03 03:24:00,
2013-02-02 21:28:00,17.2,10.9,30.11,West,270,0.0,0.0,76,0.00,,,0.00,Wunderground v.1.15,2013-02-03 03:28:00,
2013-02-02 21:31:00,17.4,11.1,30.11,SSW,213,0.0,0.0,76,0.00,,,0.00,Wunderground v.1.15,2013-02-03 03:31:00,
2013-02-02 21:33:00,17.4,11.4,30.11,SW,215,0.0,0.0,77,0.00,,,0.00,Wunderground v.1.15,2013-02-03 03:33:00,
2013-02-02 21:35:00,17.4,11.4,30.11,SW,219,0.0,0.0,77,0.00,,,0.00,Wunderground v.1.15,2013-02-03 03:35:00,
2013-02-02 21:38:00,17.4,11.4,30.11,SW,219,0.0,0.0,77,0.00,,,0.00,Wunderground v.1.15,2013-02-03 03:38:00,
2013-02-02 21:40:00,17.4,11.4,30.11,SW,219,0.0,0.0,77,0.00,,,0.00,Wunderground v.1.15,2013-02-03 03:40:00,
2013-02-02 21:41:00,17.4,11.4,30.11,SW,219,0.0,0.0,77,0.00,,,0.00,Wunderground v.1.15,2013-02-03 03:41:00,
2013-02-02 21:45:00,17.4,11.4,30.10,SW,230,0.0,0.0,77,0.00,,,0.00,Wunderground v.1.15,2013-02-03 03:45:00,
2013-02-02 21:50:00,17.4,11.7,30.10,SW,229,0.0,0.0,78,0.00,,,0.00,Wunderground v.1.15,2013-02-03 03:50:00,
2013-02-02 21:51:00,17.4,11.7,30.10,WSW,237,0.0,0.0,78,0.00,,,0.00,Wunderground v.1.15,2013-02-03 03:51:00,
2013-02-02 21:58:00,17.2,11.5,30.10,SSW,205,0.0,0.0,78,0.00,,,0.00,Wunderground v.1.15,2013-02-03 03:58:00,
2013-02-02 22:00:00,17.2,11.8,30.10,SW,219,0.0,0.0,79,0.00,,,0.00,Wunderground v.1.15,2013-02-03 04:00:00,
2013-02-02 22:01:00,17.2,11.8,30.10,SW,219,0.0,0.0,79,0.00,,,0.00,Wunderground v.1.15,2013-02-03 04:01:00,
2013-02-02 22:03:00,17.2,12.1,30.10,SW,223,0.0,0.0,80,0.00,,,0.00,Wunderground v.1.15,2013-02-03 04:03:00,
2013-02-02 22:06:00,17.2,12.1,30.10,SW,216,0.0,0.0,80,0.00,,,0.00,Wunderground v.1.15,2013-02-03 04:06:00,
2013-02-02 22:11:00,17.2,12.4,30.10,SW,232,0.0,0.0,81,0.00,,,0.00,Wunderground v.1.15,2013-02-03 04:11:00,
2013-02-02 22:13:00,17.2,12.4,30.10,SW,236,0.0,0.0,81,0.00,,,0.00,Wunderground v.1.15,2013-02-03 04:13:00,
2013-02-02 22:18:00,17.2,12.4,30.09,SW,233,0.0,0.0,81,0.00,,,0.00,Wunderground v.1.15,2013-02-03 04:18:00,
2013-02-02 22:20:00,17.2,12.6,30.09,SW,233,0.0,0.0,82,0.00,,,0.00,Wunderground v.1.15,2013-02-03 04:20:00,
2013-02-02 22:21:00,17.2,12.6,30.09,SW,233,0.0,0.0,82,0.00,,,0.00,Wunderground v.1.15,2013-02-03 04:21:00,
2013-02-02 22:28:00,17.2,12.6,30.09,WSW,239,0.0,0.0,82,0.00,,,0.00,Wunderground v.1.15,2013-02-03 04:28:00,
2013-02-02 22:30:00,17.2,12.6,30.08,WSW,239,0.0,0.0,82,0.00,,,0.00,Wunderground v.1.15,2013-02-03 04:30:00,
2013-02-02 22:31:00,17.2,12.6,30.08,WSW,239,0.0,0.0,82,0.00,,,0.00,Wunderground v.1.15,2013-02-03 04:31:00,
2013-02-02 22:33:00,17.2,12.6,30.08,WSW,239,0.0,0.0,82,0.00,,,0.00,Wunderground v.1.15,2013-02-03 04:33:00,
2013-02-02 22:35:00,17.2,12.6,30.08,WSW,239,0.0,0.0,82,0.00,,,0.00,Wunderground v.1.15,2013-02-03 04:35:00,
2013-02-02 22:38:00,17.2,12.6,30.08,WSW,239,0.0,0.0,82,0.00,,,0.00,Wunderground v.1.15,2013-02-03 04:38:00,
2013-02-02 22:43:00,17.2,12.9,30.08,WSW,239,0.0,0.0,83,0.00,,,0.00,Wunderground v.1.15,2013-02-03 04:43:00,
2013-02-02 22:45:00,17.2,12.9,30.08,WSW,239,0.0,0.0,83,0.00,,,0.00,Wunderground v.1.15,2013-02-03 04:45:00,
2013-02-02 22:51:00,17.2,12.9,30.08,SW,234,0.0,0.0,83,0.00,,,0.00,Wunderground v.1.15,2013-02-03 04:51:00,
2013-02-02 22:58:00,17.2,12.9,30.08,WSW,239,0.0,1.0,83,0.00,,,0.00,Wunderground v.1.15,2013-02-03 04:58:00,
2013-02-02 23:00:00,17.2,12.9,30.08,WSW,237,0.0,1.0,83,0.00,,,0.00,Wunderground v.1.15,2013-02-03 05:00:00,
2013-02-02 23:01:00,17.2,12.9,30.08,WSW,237,0.0,0.0,83,0.00,,,0.00,Wunderground v.1.15,2013-02-03 05:01:00,
2013-02-02 23:06:00,17.2,12.9,30.08,SW,236,0.0,0.0,83,0.00,,,0.00,Wunderground v.1.15,2013-02-03 05:06:00,
2013-02-02 23:08:00,17.1,12.8,30.08,WSW,240,0.0,0.0,83,0.00,,,0.00,Wunderground v.1.15,2013-02-03 05:08:00,
2013-02-02 23:11:00,17.1,12.8,30.08,WSW,254,0.0,1.0,83,0.00,,,0.00,Wunderground v.1.15,2013-02-03 05:11:00,
2013-02-02 23:13:00,17.1,12.8,30.08,West,271,0.0,1.0,83,0.00,,,0.00,Wunderground v.1.15,2013-02-03 05:13:00,
2013-02-02 23:18:00,17.1,13.1,30.08,WSW,258,0.0,1.0,84,0.00,,,0.00,Wunderground v.1.15,2013-02-03 05:18:00,
2013-02-02 23:22:00,16.9,12.9,30.08,WSW,239,0.0,0.0,84,0.00,,,0.00,Wunderground v.1.15,2013-02-03 05:22:00,
2013-02-02 23:23:00,16.9,12.9,30.08,West,275,0.0,0.0,84,0.00,,,0.00,Wunderground v.1.15,2013-02-03 05:23:00,
2013-02-02 23:28:00,16.7,12.7,30.08,West,275,0.0,0.0,84,0.00,,,0.00,Wunderground v.1.15,2013-02-03 05:28:00,
2013-02-02 23:33:00,16.7,12.4,30.06,West,275,0.0,0.0,83,0.00,,,0.00,Wunderground v.1.15,2013-02-03 05:33:00,
2013-02-02 23:35:00,16.7,12.4,30.06,West,265,0.0,0.0,83,0.00,,,0.00,Wunderground v.1.15,2013-02-03 05:35:00,
2013-02-02 23:41:00,16.7,12.4,30.06,West,265,0.0,0.0,83,0.00,,,0.00,Wunderground v.1.15,2013-02-03 05:41:00,
2013-02-02 23:43:00,16.7,12.4,30.06,West,265,0.0,0.0,83,0.00,,,0.00,Wunderground v.1.15,2013-02-03 05:43:00,
2013-02-02 23:46:00,16.7,12.4,30.06,West,265,0.0,0.0,83,0.00,,,0.00,Wunderground v.1.15,2013-02-03 05:46:00,
2013-02-02 23:48:00,16.7,12.4,30.06,West,265,0.0,0.0,83,0.00,,,0.00,Wunderground v.1.15,2013-02-03 05:48:00,
2013-02-02 23:53:00,16.7,12.7,30.06,West,265,0.0,0.0,84,0.00,,,0.00,Wunderground v.1.15,2013-02-03 05:53:00,
2013-02-02 23:58:00,16.9,12.9,30.06,WSW,253,0.0,0.0,84,0.00,,,0.00,Wunderground v.1.15,2013-02-03 05:58:00,